Regional Weather Roundup
Issued by NWS Charleston, SC

Home | Current Version | Previous Version | Text Only | Print | Product List | Glossary On
Versions: 1 2 3 4 5 6 7 8 9 10 11 12 13 14 15 16 17 18 19 20 21 22 23 24 25 26 27 28 29 30 31 32 33 34 35 36 37 38 39 40 41 42 43 44 45 46 47 48 49 50
000
ASUS42 KCHS 200527
RWRCHS

Regional Weather Roundup
National Weather Service Charleston SC
1200 AM EST TUE FEB 20 2018

NOTE: "fair" indicates few or no clouds below 12,000 feet with no
significant weather and/or obstructions to visibility.

Not all stations are quality controlled. Use data with caution,
especially dewpoint observations.

SCZ027-030-031-034>040-042>050-200600-
...Southeast South Carolina...

CITY           SKY/WX    TMP DP  RH WIND       PRES   REMARKS
N Charleston   FOG       63  63 100 CALM      30.39S VSB 1/4
Waterfront Prk NOT AVBL
Mount Pleasant CLOUDY    61  61 100 CALM      30.40S FOG
Johns Island   FOG       61  61 100 CALM      30.39S VSB 1/4
Pinopolis      NOT AVBL
Moncks Corner  LGT RAIN  63  61  94 CALM      30.40R VSB 1/4
Summerville    FAIR      61  59  94 CALM      30.40R
Beaufort MCAS  FOG       61  61 100 NE3       30.38S VSB 1/4
Beaufort Arpt  FOG       61  61 100 CALM      30.37S VSB 1/4
Hilton Head Is FAIR      66  64  94 SE3       30.38S
Walterboro     FOG       61  61 100 CALM      30.40S VSB 1/4
Allendale      MOCLDY    64  64 100 CALM      30.37S

...Southern Midlands and Pee Dee...

CITY           SKY/WX    TMP DP  RH WIND       PRES   REMARKS
Georgetown     FOG       59  57  94 CALM      30.42R VSB 1/4
Kingstree      FOG       63  61  94 CALM      30.41R VSB 1/4
Orangeburg     FAIR      59  57  93 E3        30.39S FOG
Barnwell         N/A     64  64 100 CALM      30.38S FOG
Aiken          FAIR      59  59 100 CALM      30.41S
Manning        HAZE      63  52  67 MISG      30.41R VSB 1/2
Columbia       FAIR      63  61  93 E5        30.39R
Sumter         CLOUDY    61  59  94 NE3       30.39S FOG
Florence       CLOUDY    59  57  93 NE3       30.42R FOG
Myrtle Beach   FOG       61  61 100 CALM      30.43S VSB 1/4
N Myrtle Beach FOG       62  62 100 CALM      30.41S VSB 1/4

$$

GAZ063-065-086>088-099>101-113>116-118-119-134>141-150-200600-
...Southeast Georgia...

CITY           SKY/WX    TMP DP  RH WIND       PRES   REMARKS
Savannah Arpt  FOG       63  63 100 E3        30.37S VSB 1/4
Hunter AAF     CLEAR     63  61  94 CALM      30.34S FOG
Fort Stewart   FAIR      61  61 100 CALM      30.34S FOG
Statesboro     FAIR      60  32  34 CALM      30.37S FOG
Sylvania       FAIR      64  64 100 CALM      30.38R FOG
Claxton        FOG       63  63  98 CALM      30.36S VSB 1/2

...CSRA, Central and far Southeast Georgia...

CITY           SKY/WX    TMP DP  RH WIND       PRES   REMARKS
Thomson        CLOUDY    60  58  94 CALM      30.42S
Augusta-Bush   FAIR      57  57 100 CALM      30.36R FOG
Augusta-Daniel CLOUDY    66  61  84 E5        30.37S
Swainsboro     FAIR      64  63  94 SE5       30.36S
Vidalia        FAIR      63  63 100 SE3       30.35S
Eastman        MOCLDY    67  56  69 SE3       30.36S
Hazlehurst     FAIR      67  65  93 SE5       30.33S
Alma           FAIR      65  63  93 E3        30.34S
Waycross       FAIR      65  62  90 SE5       30.34S
Jesup          FAIR      64  63  94 CALM      30.35S FOG
Baxley         FAIR      63  63 100 SE3       30.34S
Brunswick      FAIR      64  61  88 SE5       30.36S
Saint Simons   FAIR      65  64  97 SE8       30.34F

$$

SCZ027-028-034-036>038-045-046-048>050-GAZ119-141-200600-
...Lake and Supplemental Coastal Observations...

STATION/POSITION TIME  TEMP    WIND        PRES    WAVE   SWELL
                       AIR SEA DIR/SP/G            HT/PER HT/PER/DIR
                 (UTC) (F)     (DEG/KT/KT) (MB)    (FT/S) (FT/S/D)
Winyah Bay       0445   60      50/  3     1030.0S
Lake Murray      0430   62      30/  2/  3 1028.4R
ACE Basin NERRS  0445   63        CALM     1029.0S
Fort Pulaski     0500   65 59  130/  3/  5 1028.6
Sapelo Island    0500   69     140/  7     1028.0

$$

ANZ835-935-AMZ111-154-330-350-352-354-370-450-454-472-200600-
...C-MAN and Buoy Observations...

STATION/POSITION TIME  TEMP    WIND        PRES    WAVE   SWELL
                       AIR SEA DIR/SP/G            HT/PER HT/PER/DIR
                 (UTC) (F)     (DEG/KT/KT) (MB)    (FT/S) (FT/S/D)
Buoy 41004       0510   70 68  140/  6/  6 1029.0
Buoy 41008       0450   63 58  110/  6/  6 1027.6F   3/ 9   3/ 80/ 9
Folly Beach CMAN 0500   59      40/  4/  5 1029.6R
Capers Nearshore NOT AVBL
Fripp Nearshore  0408   58 58  120/ 12     1027.2F


STATION/POSITION TIME  TEMP    WIND        PRES    WAVE   SWELL
                       AIR SEA DIR/SP/G            HT/PER HT/PER/DIR
                 (UTC) (F)     (DEG/KT/KT) (MB)    (FT/S) (FT/S/D)
5E St. Marys GA  0500      62                N/A     3/ 5
Frying Pan Buoy  0510   71 68  160/  6/  8 1030.0
Buoy 41025       0510   72 73  160/ 16/ 19 1031.8
Cape Lookout NC  0500          170/  5/  6 1031.2R
Buoy 41002       0450   72 72  120/ 14/ 16 1031.0S   4/ 8   3/ 60/ 8
Buoy 41010       NOT AVBL
St Augustine FL  0500   67 63  120/  9/ 10 1027.1F


$$



USA.gov is the U.S. government's official web portal to all federal, state and local government web resources and services.